Wind_Speed
12 13 13 12 12 11 10 9 8 6 5 4 3 4 5 5 5 5 7 8 8 10 12 13 15 17 18 19 19 20 21 21 21 24 26 27 29 29 30 30 30 30 33 35 36 37 37 37 36 36 36 39 41 42 40 38 38 37 36 36 37 38 38 36 35 37 38 38 36 34 35 36 36 36 36 35 34 33 33 33 32 30 29 28 27
16 15 14 13 12 11 11 9 8 8 8 8 8 8 8 7 6 5 5 6 7 10 11 12 14 17 19 20 21 21 22 21 19 22 25 26 28 30 32 34 33 34 35 37 38 39 39 39 37 37 37 37 39 39 38 36 35 34 32 32 34 36 38 36 35 36 37 39 39 40 40 39 39 39 38 37 35 35 35 35 33 32 31 30 29
17 16 14 13 12 12 12 11 11 11 11 11 11 11 10 10 10 8 6 4 5 7 10 11 13 16 18 21 23 23 23 23 21 23 26 27 27 28 30 33 35 35 36 37 38 38 38 38 37 36 36 36 37 36 35 34 33 32 31 30 30 33 34 34 33 33 34 37 39 42 41 40 41 41 40 40 37 36 35 35 34 33 32 32 31
17 16 15 14 14 13 12 12 12 12 12 11 11 11 11 11 11 11 9 7 6 6 8 10 12 15 16 18 21 21 22 24 24 27 29 29 29 29 30 33 35 35 35 34 35 35 35 35 35 36 36 36 37 36 34 32 32 31 29 28 29 30 31 30 31 31 32 33 36 38 39 39 40 40 40 40 38 37 36 35 35 34 33 32 32
18 18 16 16 16 14 12 11 11 11 10 9 9 9 9 10 11 11 11 10 10 10 10 11 13 15 16 17 18 19 20 22 24 26 28 28 30 30 31 33 34 34 33 32 31 31 31 32 33 34 36 37 37 36 34 31 30 28 27 27 27 26 27 27 29 31 30 29 32 34 37 39 39 38 37 38 38 38 36 35 35 35 34 33 33
18 18 17 17 17 15 13 10 9 9 8 7 6 6 6 8 10 10 11 12 12 13 14 15 16 17 18 19 19 20 22 23 23 24 25 26 27 27 28 29 30 30 30 30 30 31 31 31 32 33 35 36 36 36 33 29 26 24 25 26 25 24 25 26 27 30 29 27 27 31 35 39 39 37 36 37 39 38 36 35 35 35 35 35 35
19 19 19 18 18 16 13 11 9 7 6 5 4 4 6 8 10 11 12 14 15 16 17 18 19 20 21 21 22 23 24 25 25 25 25 26 26 26 26 26 27 26 26 27 28 29 30 31 32 33 33 32 32 32 30 27 25 24 24 25 25 24 24 25 25 27 29 28 26 27 30 33 36 37 38 38 38 38 39 38 36 36 37 37 36
21 19 19 19 19 17 14 12 10 7 5 4 3 4 6 8 10 12 14 16 18 19 20 20 20 21 22 23 23 24 24 25 25 25 25 24 24 24 23 23 25 24 24 25 26 27 28 29 30 31 31 28 26 28 26 25 27 27 27 27 26 25 25 26 25 26 28 28 28 28 28 27 29 33 38 40 42 42 42 42 40 38 39 39 38
22 21 20 19 19 18 16 13 11 9 6 3 2 3 6 8 11 13 16 19 21 22 22 21 21 21 21 22 22 22 22 22 23 24 23 22 22 21 21 22 24 24 25 25 25 25 25 25 25 25 26 25 24 26 25 23 26 28 28 27 26 25 25 26 26 26 27 29 31 31 31 29 27 30 33 37 43 46 46 44 40 39 40 41 39
22 22 21 21 21 19 17 16 13 10 7 4 2 2 6 8 11 14 17 21 23 24 24 23 22 21 21 21 21 22 22 21 21 22 22 21 22 21 21 22 23 24 25 25 25 25 24 23 21 19 20 21 22 24 25 22 23 26 26 24 24 24 26 28 27 26 27 29 30 30 33 33 31 30 30 31 36 43 48 46 41 40 41 42 40
25 24 22 22 23 21 19 18 15 12 9 6 3 2 5 9 12 15 19 23 25 27 26 26 24 23 22 22 22 22 22 21 20 21 21 21 20 20 20 21 22 23 24 24 24 24 25 24 22 20 19 19 20 22 25 23 23 26 26 25 24 25 26 28 29 29 28 29 30 30 32 33 32 29 27 27 29 34 43 46 43 41 41 42 41
27 26 24 22 23 21 19 19 17 13 11 7 4 3 6 9 12 16 21 24 27 29 30 29 28 26 24 23 23 22 22 21 20 19 19 20 20 20 20 20 20 21 22 22 22 22 23 23 22 23 23 22 21 22 24 24 25 26 28 28 28 28 28 28 30 29 29 30 31 31 30 30 32 31 29 28 28 29 34 40 42 40 41 42 40
29 29 26 23 21 20 20 19 17 15 12 9 6 5 6 10 13 18 22 26 29 31 32 31 30 28 26 25 24 23 22 21 20 19 19 19 20 20 20 21 21 21 22 22 22 21 21 21 21 22 23 24 24 23 22 24 25 25 26 28 29 30 30 31 31 29 29 30 31 32 30 31 33 32 31 32 31 30 31 35 39 39 40 41 38
30 30 29 24 21 21 20 19 18 16 14 12 9 7 7 11 14 18 23 26 30 32 33 32 31 29 27 25 24 23 22 21 20 20 20 20 20 21 21 21 22 22 23 23 23 22 21 21 21 21 22 23 24 24 22 22 24 25 25 26 28 30 30 30 30 30 30 30 31 33 33 33 33 32 33 34 33 33 32 33 37 39 39 40 38
30 31 30 25 21 21 22 20 18 17 16 14 11 9 9 12 15 19 23 26 30 33 33 32 30 29 28 26 24 23 22 21 21 21 21 21 21 22 22 22 23 23 24 24 23 22 21 21 20 21 21 21 22 23 23 22 22 23 24 24 25 27 29 28 29 30 31 31 33 36 35 33 34 35 35 35 34 35 35 32 34 38 38 39 41
31 31 30 27 23 23 23 21 19 18 17 15 12 10 11 14 16 19 23 26 30 34 34 32 30 29 27 25 24 23 21 20 21 21 22 22 22 23 23 23 23 24 24 23 22 21 21 21 20 20 21 21 21 22 23 23 22 22 23 24 24 25 27 28 29 31 32 32 32 35 36 35 35 37 37 36 36 37 38 35 34 36 37 39 42
33 31 31 28 25 24 23 21 20 18 18 16 13 11 13 16 17 19 22 25 30 34 35 33 31 29 27 25 23 22 20 20 20 21 21 22 22 23 24 24 24 24 23 22 21 20 19 20 20 20 21 21 21 22 22 22 22 22 22 23 24 25 26 26 28 31 32 33 32 33 36 36 36 38 39 38 38 39 40 40 38 40 41 41 41
34 31 31 29 27 25 23 22 20 19 19 17 15 14 15 16 18 19 22 25 29 34 35 34 32 30 28 25 23 21 20 19 20 20 21 22 22 23 23 24 24 23 22 21 20 19 18 18 19 19 20 21 21 22 22 21 21 21 21 22 24 26 26 26 27 29 31 33 35 34 36 36 36 39 40 40 40 40 41 43 43 44 45 45 43
35 32 31 30 28 26 23 22 21 20 20 20 17 16 16 17 18 19 21 24 29 33 35 34 32 30 28 26 23 21 20 19 20 20 21 22 23 23 23 23 23 22 22 21 19 17 17 18 19 18 19 21 21 22 22 21 20 20 20 21 23 25 28 28 28 30 31 33 35 35 36 38 37 38 40 40 40 41 42 44 45 46 47 47 44
34 33 31 29 29 28 25 23 23 22 21 21 20 18 18 19 19 20 21 24 29 32 34 35 33 31 28 26 23 21 20 20 21 21 22 23 22 22 22 22 22 22 21 19 17 17 18 19 19 18 19 20 20 21 22 20 20 20 20 22 23 24 28 31 31 31 32 34 36 36 37 38 37 38 40 40 41 41 43 45 47 47 47 45 43
30 31 31 30 30 29 27 26 26 24 23 23 22 20 20 20 20 20 21 24 28 31 34 34 33 31 28 26 24 22 21 21 21 22 22 22 21 21 21 21 20 20 19 18 17 18 18 19 19 18 19 20 18 19 21 19 18 19 19 21 22 23 26 28 30 31 31 33 35 37 38 38 38 39 39 39 41 42 43 45 47 48 48 45 42
27 28 30 31 31 31 29 29 28 26 26 25 24 22 22 22 21 21 22 25 28 31 33 34 33 31 29 26 24 23 22 21 21 21 22 21 21 21 21 20 19 19 18 17 17 18 18 19 19 18 20 21 18 18 19 19 19 19 20 20 21 23 26 27 28 30 31 32 34 36 36 36 37 40 40 38 39 41 43 44 45 47 48 45 43
24 26 29 31 31 32 31 30 30 28 27 27 25 24 24 23 21 22 23 25 28 31 33 35 33 31 28 26 24 22 21 21 21 21 21 22 23 23 22 21 19 19 18 17 18 18 18 19 19 19 20 21 19 17 17 19 20 21 22 22 22 24 26 28 28 29 31 34 35 36 36 35 34 37 39 37 37 39 41 43 44 46 46 44 41
24 25 28 30 32 33 32 31 31 30 29 28 26 26 25 23 22 22 23 25 27 29 33 34 33 31 28 25 23 22 21 21 21 21 22 23 24 25 24 23 21 19 18 18 19 19 19 19 20 21 20 20 19 18 16 18 20 22 23 23 23 24 26 28 29 31 34 36 37 36 36 35 33 34 36 36 36 38 38 39 42 44 45 44 41
26 26 26 28 30 31 30 31 32 32 30 29 28 26 25 24 22 22 24 26 27 29 32 34 32 30 27 24 22 22 22 22 22 23 23 24 24 24 24 24 22 21 20 20 20 20 20 21 22 22 21 19 19 18 18 18 20 23 24 25 26 27 28 30 30 32 35 38 39 36 33 34 33 32 34 35 35 37 38 38 39 41 43 45 43
24 26 27 27 28 29 29 32 34 33 31 30 28 27 26 24 22 23 24 26 27 29 32 33 31 28 25 22 22 22 22 23 23 24 24 24 23 23 24 24 24 23 22 22 21 20 20 21 23 24 23 21 19 19 19 20 22 24 26 28 29 30 30 31 32 33 36 39 40 36 30 31 32 30 31 34 34 36 37 37 37 38 41 44 43
23 26 28 29 29 29 30 33 34 33 31 29 27 27 26 24 23 23 24 25 27 30 32 31 29 26 23 21 21 22 22 23 24 24 24 23 21 21 22 23 24 25 24 23 22 21 20 20 22 24 25 23 20 20 21 22 23 25 27 30 31 31 32 33 33 33 35 39 41 36 28 26 26 27 29 31 31 34 36 35 34 36 39 43 43
26 27 29 29 29 29 32 34 34 32 31 28 27 27 25 24 23 24 24 25 27 30 31 29 26 24 22 20 20 22 23 24 25 24 22 21 19 20 21 22 24 25 24 23 23 23 21 19 20 23 26 25 22 21 22 23 25 26 29 31 31 32 33 33 33 33 36 40 39 32 26 23 22 23 27 30 30 32 34 33 32 34 37 41 43
28 28 28 29 30 31 33 34 33 31 30 28 27 26 25 24 24 24 24 25 28 30 29 27 24 22 21 19 20 22 24 25 24 22 21 20 18 19 21 23 25 25 23 22 22 23 22 19 18 21 26 26 24 23 23 24 26 28 30 31 31 32 34 33 32 33 36 40 35 27 23 21 21 23 26 28 28 29 31 31 32 33 35 38 41
29 29 29 29 30 31 31 32 31 30 28 27 26 25 24 23 23 23 23 25 28 28 27 26 23 21 20 19 19 22 24 24 22 21 20 19 18 20 22 24 24 24 23 23 22 22 22 19 18 21 25 27 25 24 24 24 26 29 31 31 31 32 33 32 31 34 37 39 34 26 22 21 20 21 22 25 27 28 29 30 31 31 32 35 39
29 31 30 29 30 30 30 30 29 28 27 26 25 24 23 22 21 22 23 26 27 27 26 25 22 21 20 19 19 22 24 23 22 21 20 18 18 21 23 24 24 23 23 23 22 22 20 19 18 21 25 26 25 24 24 25 27 29 30 30 30 30 31 30 30 34 37 39 37 29 24 22 22 20 19 23 27 28 29 30 31 32 32 34 38
28 30 31 30 29 29 28 28 27 26 25 24 24 22 20 19 21 22 24 25 25 25 25 24 21 20 20 20 22 24 25 24 23 23 20 18 19 21 23 24 24 22 22 22 22 21 19 19 19 20 23 24 25 25 25 25 27 29 30 30 28 28 30 30 30 33 37 39 39 33 26 23 24 23 22 22 25 28 29 30 30 32 34 35 37
25 28 30 30 29 28 26 25 24 23 23 23 22 19 17 19 21 22 23 24 23 24 25 23 21 20 20 22 24 24 25 25 24 22 21 20 19 20 22 23 24 23 21 21 21 20 19 19 19 19 20 22 24 25 25 25 26 28 29 29 27 27 28 30 30 33 37 39 38 36 32 27 24 24 24 24 25 27 30 31 31 32 34 35 37
25 25 27 29 29 27 24 22 21 21 22 22 19 17 17 19 21 21 22 22 23 25 24 22 21 21 21 23 24 24 25 25 23 22 22 21 20 21 22 23 23 22 22 21 20 19 19 19 19 20 19 20 22 23 23 23 25 27 28 27 26 26 27 29 31 33 36 38 38 39 39 34 27 23 22 22 26 28 30 32 33 33 34 35 36
24 24 26 29 29 25 22 21 21 22 23 20 17 17 19 20 20 21 21 22 23 24 23 22 21 21 22 24 24 25 25 24 22 22 22 22 22 22 23 23 22 22 22 21 20 19 19 18 18 20 19 19 20 21 22 23 24 26 27 26 26 25 25 27 29 31 35 38 38 39 41 39 33 26 21 20 22 26 29 32 35 36 36 36 37
24 25 27 28 26 23 20 20 22 23 22 17 17 19 19 19 20 20 21 22 23 23 21 20 20 21 23 24 25 26 26 24 23 24 23 23 23 24 25 24 23 23 22 22 21 21 20 19 17 18 18 18 19 20 20 21 23 25 27 26 25 24 24 25 27 29 32 36 38 39 40 41 38 31 24 21 19 21 26 30 34 37 38 39 38
23 23 22 21 21 20 20 21 23 22 18 17 19 19 17 18 21 22 21 22 22 21 19 19 20 21 23 25 26 27 27 26 26 26 25 25 25 25 25 25 25 24 22 22 21 21 22 22 20 18 17 17 17 19 19 20 22 24 25 25 24 23 22 23 26 29 30 33 37 40 42 42 40 34 26 22 20 21 24 27 32 36 37 39 39
21 21 19 19 19 20 21 23 22 19 17 19 20 18 17 20 22 22 21 21 20 20 19 20 22 22 23 26 28 28 28 28 28 28 27 27 27 25 25 25 25 23 21 22 22 20 20 20 20 20 19 18 18 17 18 20 22 23 23 23 22 21 21 22 25 27 28 30 34 38 42 43 40 35 29 21 20 22 24 25 28 31 34 36 37
16 17 17 17 18 21 22 21 19 17 19 20 19 18 21 23 22 21 21 21 20 19 20 23 24 23 25 27 28 28 28 29 29 29 29 29 28 26 26 26 26 25 23 24 24 23 22 21 19 18 18 18 18 17 17 20 22 23 23 22 20 20 20 20 23 25 25 27 30 33 37 41 39 37 35 29 20 19 22 23 22 22 27 32 33
12 14 14 15 17 19 18 17 17 19 20 20 20 22 24 24 22 21 21 22 21 21 23 26 26 25 27 28 29 29 29 29 30 29 29 30 30 29 28 28 28 27 27 27 27 27 26 24 22 19 17 17 17 18 19 20 22 23 22 21 19 19 19 19 21 23 24 24 26 28 33 38 38 38 40 37 25 14 18 21 18 14 17 26 32
10 11 12 13 14 14 14 16 18 19 19 21 22 24 24 22 21 22 23 23 23 25 27 29 28 28 29 29 30 30 29 29 31 30 29 30 31 31 30 31 31 30 29 29 29 28 27 25 24 22 19 17 16 17 18 19 21 22 21 20 19 19 19 19 20 22 23 23 24 26 29 34 36 37 39 39 28 14 13 18 17 16 13 18 29
9 9 9 10 11 13 15 17 18 18 20 22 23 22 21 20 22 24 25 26 27 29 32 33 31 31 30 29 29 29 28 29 31 31 30 31 31 30 29 31 32 31 29 28 28 27 26 24 23 22 21 20 18 16 15 17 20 21 20 19 19 19 19 19 20 20 21 21 22 24 25 29 34 35 36 39 34 20 12 16 19 19 13 13 24
8 8 9 10 12 14 16 17 17 19 21 22 21 21 21 23 24 25 26 29 30 32 35 36 34 33 32 30 29 28 27 28 30 30 30 31 31 29 29 30 30 30 29 27 26 27 25 24 23 22 22 22 19 15 15 18 20 20 20 19 18 19 20 20 20 20 19 19 20 21 22 25 30 32 32 36 39 31 18 16 21 21 10 7 16
9 10 11 12 14 15 16 17 19 22 22 21 22 23 24 26 26 24 26 31 33 35 37 37 35 34 33 32 32 30 28 28 29 30 31 32 32 30 30 30 30 30 28 26 26 25 24 22 21 21 22 22 20 16 16 17 18 19 19 18 18 19 20 20 20 19 19 19 19 19 19 21 26 29 31 32 36 38 31 21 22 25 17 5 6
11 12 13 14 15 15 17 19 21 23 23 23 25 25 26 27 28 27 29 32 34 36 37 36 34 33 33 33 33 31 29 28 29 31 32 33 33 33 32 31 31 30 28 26 25 24 22 20 19 20 21 21 20 18 16 16 17 18 19 18 18 18 19 20 20 19 19 19 19 18 17 19 22 25 30 32 31 36 39 31 24 28 25 16 10
12 12 13 15 16 16 18 20 22 24 24 25 27 27 28 29 30 31 32 33 35 37 36 34 33 33 34 34 33 31 31 30 31 32 34 35 35 34 34 33 31 29 27 25 24 22 20 19 19 20 20 18 18 18 17 16 17 18 19 19 18 17 18 19 19 18 18 18 19 18 16 17 20 21 26 31 30 31 39 39 32 31 31 25 19
13 13 14 15 16 17 19 22 24 26 27 28 30 30 30 31 32 33 33 34 35 34 33 33 33 34 36 36 33 32 32 32 33 34 35 36 36 35 33 31 30 28 26 23 22 21 20 20 20 19 18 16 17 18 17 17 17 18 19 19 18 16 16 17 17 17 18 18 18 18 17 16 18 19 21 27 29 29 34 39 39 37 36 31 25
13 13 14 15 16 18 20 23 26 28 28 30 31 32 33 32 32 32 34 34 33 32 32 34 35 35 36 34 33 33 33 34 34 35 34 35 36 35 34 32 29 26 24 21 20 21 20 20 20 19 17 16 17 17 17 17 17 17 18 17 16 15 14 15 16 16 17 17 16 17 17 17 16 16 18 21 25 26 29 34 37 38 38 36 30
13 14 15 16 17 19 21 24 26 29 30 32 33 33 33 31 30 31 33 33 32 32 34 35 35 35 34 32 32 33 34 34 35 36 35 35 34 34 35 34 30 25 22 20 19 20 19 19 19 18 17 16 17 17 17 17 17 16 16 15 14 14 13 14 15 15 15 15 15 15 16 17 16 15 15 17 19 23 25 28 31 33 35 36 35
15 16 16 17 19 21 23 25 27 29 31 33 33 32 31 30 29 29 31 31 32 32 33 34 35 34 33 33 34 35 35 34 35 36 35 34 32 32 32 31 26 21 19 18 18 18 18 17 17 17 17 17 17 17 16 16 16 16 16 15 14 13 12 12 13 14 13 13 14 14 16 17 16 15 15 14 16 19 22 24 26 28 30 32 34
17 17 18 19 21 23 25 26 28 29 30 31 31 31 30 29 28 28 29 31 32 32 32 34 35 34 33 34 34 35 36 36 35 33 32 31 30 29 26 22 19 17 17 17 17 17 16 16 16 17 17 17 17 17 17 16 16 15 15 15 14 13 12 11 12 12 13 13 13 15 16 16 16 16 15 14 14 16 18 21 22 23 25 28 31
Wind_Direction
156 148 140 135 129 128 124 113 102 98 89 60 34 15 0 353 346 324 308 305 301 299 299 300 298 294 292 291 290 289 286 285 286 285 282 281 284 286 284 282 282 284 287 290 291 292 294 295 294 294 291 290 290 292 293 292 289 287 285 283 281 279 276 276 278 275 269 265 263 262 260 259 259 256 253 251 249 248 249 249 247 248 250 250 249
147 141 135 134 131 130 132 127 114 106 101 89 80 70 59 53 43 21 343 320 308 307 308 307 304 299 297 295 292 293 292 289 286 282 279 280 284 286 285 284 283 284 285 287 289 290 292 294 294 293 291 290 291 291 291 290 288 287 284 280 278 277 273 270 272 275 273 268 265 264 260 257 258 258 255 252 250 249 249 249 247 246 247 249 248
145 143 142 144 144 142 141 139 129 117 110 100 91 81 71 66 60 52 38 357 324 316 308 304 303 298 296 293 290 292 292 289 285 281 281 283 284 283 283 282 282 282 283 284 287 290 292 294 295 295 294 293 294 293 292 291 292 293 292 287 283 279 273 266 265 270 273 272 267 263 260 258 257 257 256 255 251 249 249 249 248 245 244 245 246
156 155 158 159 159 156 151 143 130 119 115 106 91 79 68 58 52 47 40 23 1 335 308 302 299 291 289 289 285 284 285 285 286 285 285 285 285 285 285 285 285 285 285 286 287 289 291 293 295 295 296 297 297 296 294 294 296 296 295 292 288 285 277 265 259 262 268 267 266 265 262 259 257 256 257 256 252 249 249 247 246 244 242 243 244
170 168 169 169 170 170 166 153 135 124 117 109 93 76 64 51 43 37 28 16 3 348 330 318 308 299 297 297 292 290 290 289 290 289 288 287 286 287 288 289 289 290 290 290 290 290 290 291 292 294 297 298 298 297 296 297 296 293 291 289 288 285 278 266 256 258 263 261 262 267 263 257 258 259 257 256 252 249 249 247 244 243 242 242 243
180 179 179 178 179 180 180 171 150 137 121 107 93 73 55 41 33 25 16 6 354 346 338 328 320 315 312 309 307 305 302 300 299 297 295 293 290 288 289 289 289 290 291 292 292 293 293 293 293 295 297 298 298 296 296 298 293 287 286 286 283 280 276 269 260 258 260 259 259 264 260 256 258 259 257 255 251 248 247 247 245 243 243 243 243
187 187 187 186 188 188 189 183 168 158 138 111 90 58 38 28 23 16 7 359 352 346 339 333 327 323 320 316 313 310 306 304 301 299 296 294 293 291 291 291 292 292 292 293 293 293 295 295 296 297 297 297 298 296 296 299 296 288 286 284 278 274 273 271 266 258 255 257 260 261 257 255 256 258 257 255 254 252 250 249 245 242 243 244 244
195 194 194 193 194 197 196 188 179 176 160 129 93 42 30 22 18 11 3 357 352 348 342 337 330 325 321 316 312 309 306 304 301 299 297 294 294 295 296 298 299 300 300 299 299 298 297 297 297 297 297 296 293 291 294 297 297 293 289 285 280 276 274 270 267 263 258 258 259 257 253 252 255 257 256 255 255 254 252 252 249 244 243 244 244
198 199 201 201 201 204 202 192 185 183 176 158 121 35 24 17 12 7 1 357 352 348 344 337 331 324 318 313 310 308 305 304 302 300 300 299 299 301 303 305 306 308 308 307 307 305 304 303 300 298 297 294 288 288 289 287 289 289 286 284 282 278 276 273 269 267 266 262 258 255 253 251 253 256 258 258 257 254 252 253 254 249 244 243 244
202 200 203 206 207 209 205 196 192 190 188 183 178 17 14 9 4 -0 357 355 352 347 343 337 332 324 319 315 312 310 308 305 302 302 303 303 303 304 305 306 308 310 311 311 312 312 312 311 307 302 296 292 290 290 288 282 278 278 279 282 282 279 278 277 274 271 269 265 261 260 258 253 253 257 261 263 263 260 255 253 254 252 247 244 244
207 204 203 206 208 209 205 200 197 196 199 204 221 316 357 359 354 351 352 353 350 347 342 338 334 329 323 319 315 311 308 306 304 304 304 303 302 303 304 305 307 309 310 311 313 315 315 316 313 308 301 293 289 287 285 282 276 273 275 277 278 280 279 277 276 274 270 267 265 266 265 260 256 258 263 264 267 266 259 254 253 252 250 246 243
212 210 208 209 209 207 203 201 202 202 205 214 237 291 337 346 344 344 347 350 349 346 343 339 336 331 325 319 315 311 308 307 305 304 303 303 304 306 307 309 309 310 310 312 314 316 316 316 315 312 309 302 296 291 288 285 281 278 277 277 277 279 278 277 278 274 270 269 268 267 267 260 254 257 262 261 264 270 264 254 248 248 250 244 239
214 213 212 215 215 209 204 203 205 208 212 221 245 283 320 332 334 338 343 347 348 347 344 339 335 331 325 320 315 311 308 306 304 303 303 305 308 310 312 313 313 314 314 316 318 319 319 319 317 314 311 309 305 301 295 290 287 284 282 281 280 280 279 278 278 275 271 270 267 266 264 258 254 258 261 260 263 267 266 255 244 245 250 243 235
217 215 215 218 218 212 208 207 209 214 222 231 248 276 307 320 325 332 339 345 348 347 343 338 334 330 326 321 315 311 309 307 305 305 306 310 313 315 316 317 317 317 318 321 323 324 324 324 323 320 317 314 311 309 304 297 292 290 287 285 283 281 281 279 278 276 273 270 268 265 261 258 256 258 259 260 263 264 264 258 246 246 248 243 239
218 217 216 217 220 217 212 211 213 221 231 239 251 271 296 310 318 326 335 344 347 347 344 339 334 330 326 322 317 313 311 309 308 309 311 314 317 318 319 319 320 320 322 326 327 327 328 328 326 324 321 320 318 315 313 307 300 296 293 290 286 284 283 282 280 280 276 272 270 266 262 259 258 258 258 259 261 262 263 259 249 248 248 244 246
220 219 217 215 218 220 217 214 217 226 237 244 254 270 289 303 313 322 333 342 347 347 346 341 336 332 328 323 318 314 313 310 310 311 313 317 319 320 320 321 321 322 324 328 329 329 330 330 327 324 323 321 320 318 316 313 308 304 300 296 294 291 288 286 284 283 281 277 273 269 268 267 262 260 258 258 259 258 259 258 250 248 251 249 248
221 220 218 216 217 222 222 219 221 232 243 248 256 270 285 298 309 319 330 340 346 347 347 343 338 334 329 324 318 314 311 309 310 312 314 318 320 320 320 320 321 322 324 327 329 329 328 326 324 322 321 320 318 318 315 312 310 307 304 301 299 295 292 290 288 285 284 283 279 275 273 271 266 264 261 258 258 257 256 256 250 248 253 254 251
220 221 219 217 218 223 225 224 226 238 247 250 258 269 281 294 304 315 327 338 344 346 347 345 339 334 330 325 318 313 309 308 310 312 316 318 318 319 319 318 320 322 324 325 326 327 325 323 322 320 319 319 318 317 314 310 308 305 303 302 301 300 297 294 290 287 285 284 281 279 277 274 271 269 265 260 258 258 255 254 252 252 255 255 252
216 219 219 219 220 224 228 229 231 239 248 252 259 267 277 289 300 310 322 334 341 344 346 345 340 334 330 326 320 314 311 310 311 314 316 317 317 317 317 317 320 321 322 324 324 324 323 321 322 321 319 319 318 318 315 309 305 302 299 298 298 299 300 299 296 291 288 286 283 279 277 276 274 271 267 263 260 257 254 253 253 254 255 256 253
213 215 218 220 221 225 230 233 235 241 248 254 258 264 274 284 295 306 318 330 337 341 345 344 339 334 329 326 322 317 314 312 314 317 318 318 318 319 319 319 321 320 320 322 320 320 321 321 321 320 318 319 319 319 316 311 306 303 298 297 298 299 300 301 300 297 292 288 286 281 275 272 271 270 267 266 263 258 255 255 255 254 254 255 251
214 214 217 219 222 225 231 235 237 241 246 252 257 262 272 281 292 303 314 325 333 338 342 342 339 334 329 326 323 319 316 315 317 320 320 320 320 321 321 320 320 319 317 318 316 316 318 318 318 316 315 320 321 319 319 314 308 305 302 301 304 306 305 303 303 304 300 291 286 282 277 272 269 266 265 264 262 260 258 255 254 254 254 254 251
221 219 219 220 222 226 230 235 240 243 245 251 257 261 269 278 289 300 310 321 330 335 339 340 337 333 328 326 323 320 318 318 321 323 322 322 322 322 322 319 318 317 314 313 311 312 313 314 315 311 312 321 324 320 321 318 311 309 309 308 308 309 308 306 304 306 307 300 289 282 279 275 269 264 261 260 260 259 257 255 253 253 253 254 253
227 226 223 222 223 226 230 237 242 245 246 250 255 259 267 276 286 297 307 319 326 331 335 337 335 331 327 325 323 321 320 321 323 324 323 322 320 319 319 316 314 312 310 308 306 306 308 308 310 310 311 319 323 320 320 317 314 314 314 315 315 313 312 310 308 309 312 310 299 286 278 275 272 266 261 258 258 258 257 254 252 252 253 252 249
222 225 225 224 224 227 232 238 243 245 245 249 254 258 266 275 284 295 305 314 321 326 330 333 331 328 325 324 323 323 324 324 324 323 321 320 318 317 317 315 314 312 308 306 304 304 305 305 308 310 310 313 316 319 319 314 314 316 315 315 317 318 317 315 315 316 317 316 309 296 281 273 270 267 263 259 256 255 255 254 251 250 250 250 246
221 222 224 225 226 230 234 238 242 243 244 248 253 259 265 273 283 294 302 309 316 321 326 329 328 325 323 323 324 325 326 325 324 323 321 319 317 316 316 315 316 314 311 309 307 304 303 303 306 306 305 306 309 314 316 314 314 316 315 315 315 319 319 316 318 321 320 319 317 305 286 273 269 265 262 260 255 252 252 252 251 249 248 248 248
228 226 225 226 229 232 235 237 240 242 243 247 253 258 264 272 281 290 298 304 312 319 324 325 324 323 321 320 323 325 326 325 324 322 320 318 316 316 314 314 314 315 314 313 311 307 302 301 304 304 301 301 304 309 313 314 315 314 314 314 315 317 317 315 318 321 320 320 321 312 292 274 270 265 259 258 255 250 248 249 250 250 248 247 248
226 227 226 226 229 233 234 236 239 241 243 247 253 257 263 272 280 287 294 300 309 318 322 323 322 320 319 319 321 324 326 325 323 321 320 319 319 315 312 311 313 315 317 314 311 308 302 297 300 301 298 297 300 304 308 311 312 313 312 313 314 315 314 313 317 321 321 321 321 315 299 279 270 266 259 255 253 250 248 248 250 251 249 246 247
222 223 224 226 229 231 233 235 238 239 242 247 251 255 263 272 279 285 290 298 309 316 319 320 320 317 317 318 319 323 325 324 322 321 320 322 320 313 309 310 312 315 317 315 309 307 304 298 297 297 295 295 297 301 306 309 311 310 309 311 313 315 314 313 317 323 325 324 321 315 305 288 273 265 259 254 252 249 247 246 247 249 248 246 246
227 223 223 225 228 231 233 236 237 239 243 247 250 256 264 271 278 284 289 298 309 314 317 319 317 314 315 316 318 322 325 325 324 321 321 324 319 309 309 312 314 316 318 315 310 310 308 303 299 297 295 294 295 299 305 307 307 306 305 308 313 314 314 315 319 324 328 328 324 314 306 295 275 264 259 255 254 252 248 247 248 248 247 244 243
234 229 226 226 228 231 235 237 238 240 244 247 251 257 265 271 277 282 290 301 310 312 315 318 315 312 313 314 317 323 325 325 323 321 322 323 315 308 309 313 317 320 321 319 315 315 312 306 301 296 293 293 296 301 305 305 304 303 303 308 313 314 315 317 321 326 331 333 329 314 303 299 286 273 265 257 255 253 251 251 251 249 247 243 241
237 233 231 230 229 231 236 238 238 241 244 246 252 259 264 270 277 285 295 305 309 310 315 317 312 310 312 315 317 323 326 326 323 321 322 320 313 311 312 315 319 322 322 320 319 316 312 308 304 298 295 296 297 300 304 304 303 302 303 308 313 313 314 317 323 328 332 335 335 324 307 301 299 292 279 264 256 254 255 255 252 248 245 242 240
242 236 232 232 232 234 237 238 238 240 244 248 253 258 264 273 282 291 302 307 308 309 314 315 310 308 311 314 318 323 325 324 322 321 322 320 314 314 315 314 317 321 322 320 319 317 312 309 306 301 299 299 299 300 303 304 304 303 304 310 313 313 314 317 321 327 331 335 338 336 325 313 307 302 293 278 265 257 257 258 255 249 244 240 238
245 238 230 230 235 237 237 238 238 240 246 249 252 258 267 278 288 298 305 307 307 309 311 311 308 308 311 313 317 322 322 322 321 320 321 322 318 315 315 314 316 320 322 321 319 316 312 308 303 301 301 301 301 302 305 306 306 306 307 312 313 311 312 315 319 325 331 337 343 344 340 332 321 313 304 289 274 263 257 256 256 253 248 243 239
244 238 226 225 232 236 235 234 235 239 244 246 250 261 273 283 294 304 308 308 308 308 309 308 306 307 312 313 316 321 321 321 321 319 319 320 316 313 314 313 314 317 319 319 317 314 312 308 303 301 301 300 300 302 306 309 310 311 312 314 315 312 310 313 318 323 329 337 342 343 341 337 330 322 315 298 281 271 263 257 255 254 251 247 243
243 237 225 220 225 230 229 228 232 238 241 243 253 270 280 290 302 310 311 309 308 307 307 306 305 307 310 312 315 320 322 321 319 318 318 316 313 312 311 310 311 313 314 315 313 312 313 310 305 303 303 302 301 303 307 311 312 313 315 317 318 316 312 312 315 321 329 336 341 342 343 342 335 324 316 306 290 279 271 264 257 252 251 248 244
241 237 227 218 217 222 226 228 234 238 238 245 263 275 283 296 310 315 314 310 307 305 305 305 305 307 308 311 314 318 320 319 317 317 317 313 310 309 308 307 308 308 310 311 311 311 311 307 302 301 302 302 302 305 309 312 313 315 317 320 322 319 315 313 315 320 327 335 340 343 344 345 342 331 316 307 301 291 282 274 265 256 251 248 245
238 232 219 208 209 216 223 229 234 236 241 255 269 277 288 305 316 317 313 309 306 304 304 303 303 305 307 310 313 316 317 316 315 315 315 312 309 307 307 306 306 306 308 308 309 310 308 306 304 302 301 302 303 307 312 315 316 317 318 321 322 321 318 317 316 319 325 332 338 343 346 347 347 344 328 307 298 294 290 287 281 269 256 247 243
234 221 206 201 206 214 223 230 234 239 252 264 271 282 298 312 317 315 308 305 304 302 302 300 301 304 307 309 310 312 313 313 313 314 314 311 308 306 305 304 304 305 304 302 304 303 300 301 303 302 303 305 305 307 315 318 319 319 320 321 322 322 321 319 317 318 324 331 336 342 347 347 349 354 349 329 303 291 292 297 294 279 261 247 239
223 216 210 211 213 218 226 233 238 247 260 269 279 294 305 311 315 312 306 303 301 298 297 298 300 304 306 305 305 306 308 309 310 311 312 312 309 307 306 305 306 306 303 306 309 306 300 299 299 300 302 303 304 309 316 319 320 320 321 324 325 323 320 319 319 320 324 331 334 338 342 344 348 358 0 353 332 301 293 302 308 290 264 246 234
207 211 215 217 219 223 227 233 245 256 266 279 291 299 303 308 309 305 302 300 297 293 291 294 299 302 301 299 300 301 302 303 305 308 311 311 309 307 306 305 305 305 304 308 311 310 306 303 301 300 301 302 307 317 320 318 319 320 323 327 329 326 323 323 325 328 331 332 333 335 338 340 346 356 360 357 351 327 305 309 321 319 279 245 229
198 207 214 216 221 225 230 242 255 265 276 287 293 295 299 301 297 293 293 293 291 289 289 291 295 296 295 295 298 298 298 300 304 309 312 309 307 309 309 306 306 305 303 305 307 308 307 304 302 302 303 305 311 316 316 316 317 319 324 330 332 331 329 328 329 334 337 336 334 336 337 339 344 352 357 356 356 353 328 326 344 1 329 256 229
199 207 211 217 223 230 240 253 262 271 281 286 287 288 291 291 287 285 288 288 285 285 286 287 289 290 290 292 297 297 296 300 306 310 311 307 305 309 311 309 306 304 303 303 305 306 304 301 301 304 305 304 303 304 312 318 318 318 322 329 334 333 331 330 332 337 341 339 336 337 337 338 344 351 354 356 360 3 340 337 3 18 354 269 233
206 212 216 224 233 242 252 261 266 274 281 283 283 285 286 287 288 286 284 284 283 281 282 284 288 289 287 290 296 297 297 300 304 307 306 302 301 305 308 308 307 304 302 302 303 303 299 295 299 304 304 301 298 307 325 326 318 317 320 325 332 334 332 332 334 338 342 342 341 341 341 342 346 351 353 354 2 9 358 346 8 23 17 274 241
214 222 229 236 244 252 260 265 270 278 281 279 279 284 286 288 290 286 277 277 278 279 281 284 288 288 286 289 295 297 296 299 302 303 301 298 296 298 301 303 306 306 303 302 302 300 295 294 300 305 304 300 302 318 336 330 319 317 319 323 331 335 332 332 334 338 343 344 344 345 347 346 347 352 354 352 358 9 11 5 14 26 36 62 216
223 230 237 245 251 256 262 269 275 280 281 277 277 281 283 285 285 281 274 273 274 278 282 285 286 286 285 289 295 295 294 298 300 300 299 296 295 295 294 296 301 305 304 302 300 297 294 296 303 305 303 303 307 318 329 328 321 320 320 324 331 333 332 332 334 339 343 343 345 349 352 351 349 353 356 353 353 6 13 13 20 29 37 59 100
235 240 244 249 255 261 267 272 275 275 274 272 271 275 279 280 279 277 275 273 273 277 281 283 283 284 284 288 292 292 293 297 299 298 299 299 297 295 293 293 297 301 302 299 296 295 296 299 301 302 303 306 310 318 326 328 324 324 324 326 329 330 333 334 334 338 342 340 343 351 356 357 355 355 357 355 355 7 13 13 21 32 36 46 65
237 243 248 252 258 264 268 269 269 269 269 268 269 274 278 279 278 276 273 272 274 276 278 280 281 281 283 287 290 289 291 296 298 298 301 301 299 298 296 294 295 297 298 296 292 292 294 297 299 301 304 308 313 319 325 325 323 323 322 323 325 326 329 331 332 336 340 339 341 349 356 -0 -0 -0 0 358 360 9 13 11 18 29 34 37 44
239 243 248 253 258 263 266 267 268 269 270 270 272 277 280 281 279 275 272 272 273 274 276 279 278 279 283 287 288 289 292 296 298 299 301 301 301 302 300 296 294 293 293 292 290 289 291 294 298 302 306 311 316 319 321 320 319 320 319 319 322 323 321 325 330 334 340 343 345 348 353 359 2 3 3 1 3 11 14 11 14 24 31 34 36
245 246 250 257 262 266 268 269 270 271 272 273 275 278 280 281 278 274 272 273 274 274 276 277 277 280 285 287 289 292 295 298 301 302 302 301 302 302 298 293 291 289 287 287 286 287 289 292 296 300 305 310 315 317 318 318 317 318 319 320 320 319 315 318 327 333 338 346 350 345 346 356 3 5 5 5 7 11 14 13 13 18 25 31 34
250 253 259 266 269 271 272 272 272 273 274 275 277 277 277 276 275 273 272 272 273 275 277 277 279 283 287 289 292 295 297 300 302 303 304 304 303 304 301 294 288 283 280 282 283 283 285 289 293 298 304 309 313 316 317 319 319 319 323 324 321 317 313 312 321 331 336 343 347 344 344 352 1 5 7 8 8 10 13 14 14 16 21 27 29
256 262 268 273 275 276 277 276 276 276 275 275 275 275 274 273 272 271 270 270 272 274 277 279 282 286 288 291 295 297 298 301 302 301 302 302 304 309 309 296 283 280 281 281 280 277 279 284 290 297 304 309 313 316 318 322 325 325 326 328 326 322 319 314 316 326 334 338 342 342 345 350 354 358 5 9 9 10 13 15 16 16 20 26 26
Height
3222 3222 3222 3223 3223 3223 3223 3223 3223 3223 3223 3222 3222 3222 3222 3222 3222 3222 3222 3222 3221 3220 3219 3219 3219 3218 3217 3216 3215 3214 3214 3214 3212 3211 3211 3209 3207 3205 3205 3205 3205 3205 3204 3202 3201 3200 3200 3199 3200 3200 3199 3198 3197 3197 3197 3197 3196 3196 3195 3194 3193 3192 3193 3194 3194 3193 3192 3192 3193 3194 3194 3195 3195 3195 3196 3196 3196 3196 3196 3197 3199 3200 3200 3200 3201
3222 3222 3222 3222 3223 3223 3223 3223 3223 3223 3223 3223 3222 3222 3222 3222 3222 3222 3221 3221 3220 3219 3218 3217 3217 3216 3215 3213 3212 3211 3211 3210 3209 3208 3207 3206 3205 3203 3202 3202 3202 3202 3201 3200 3199 3198 3197 3196 3196 3196 3195 3194 3193 3192 3192 3191 3191 3191 3190 3190 3189 3187 3187 3189 3189 3188 3187 3187 3189 3190 3189 3190 3191 3191 3191 3193 3193 3193 3193 3193 3195 3196 3197 3197 3198
3222 3222 3223 3223 3223 3223 3223 3223 3223 3223 3223 3223 3223 3222 3222 3222 3222 3222 3221 3220 3219 3218 3217 3216 3215 3214 3213 3212 3211 3209 3208 3207 3206 3205 3204 3203 3203 3202 3201 3200 3199 3200 3199 3198 3196 3195 3193 3192 3191 3191 3190 3189 3189 3188 3187 3186 3185 3184 3183 3183 3183 3182 3182 3183 3184 3183 3183 3183 3183 3184 3185 3186 3186 3186 3187 3188 3189 3189 3189 3189 3190 3192 3193 3194 3194
3221 3222 3223 3223 3223 3223 3223 3223 3223 3223 3223 3222 3222 3222 3222 3221 3221 3221 3220 3219 3219 3218 3217 3215 3214 3213 3212 3211 3209 3208 3206 3205 3203 3201 3200 3200 3199 3199 3198 3197 3196 3196 3196 3195 3194 3192 3191 3189 3188 3186 3186 3185 3184 3183 3182 3181 3180 3178 3177 3177 3177 3177 3177 3178 3179 3179 3179 3179 3179 3179 3180 3181 3181 3182 3183 3184 3185 3185 3185 3185 3186 3187 3189 3190 3190
3221 3221 3222 3223 3223 3223 3223 3223 3223 3222 3222 3222 3222 3221 3221 3221 3220 3219 3219 3218 3218 3217 3216 3214 3213 3211 3210 3208 3207 3205 3204 3202 3201 3199 3197 3197 3196 3195 3194 3193 3192 3192 3191 3191 3190 3189 3188 3187 3186 3184 3182 3181 3180 3179 3178 3177 3176 3174 3174 3174 3174 3174 3173 3174 3175 3175 3176 3176 3176 3176 3176 3176 3177 3179 3179 3179 3179 3180 3181 3182 3182 3183 3185 3186 3186
3220 3221 3221 3222 3222 3222 3222 3222 3222 3222 3222 3221 3221 3220 3220 3220 3219 3218 3218 3217 3216 3215 3214 3212 3211 3209 3207 3206 3204 3203 3201 3199 3198 3197 3195 3194 3193 3192 3191 3190 3189 3189 3188 3187 3186 3184 3184 3183 3182 3181 3179 3177 3176 3174 3173 3173 3173 3172 3171 3171 3172 3172 3171 3171 3172 3173 3172 3172 3173 3173 3173 3173 3173 3175 3175 3174 3174 3176 3178 3178 3178 3180 3181 3181 3183
3218 3219 3220 3220 3221 3221 3221 3221 3221 3221 3221 3220 3220 3219 3219 3218 3218 3217 3216 3215 3214 3213 3211 3209 3208 3206 3204 3203 3201 3199 3198 3196 3195 3194 3193 3191 3190 3188 3188 3187 3186 3185 3185 3184 3183 3182 3181 3179 3178 3177 3176 3174 3173 3171 3170 3170 3170 3169 3169 3169 3169 3169 3168 3168 3169 3169 3168 3168 3169 3169 3169 3169 3169 3170 3170 3170 3170 3171 3173 3174 3174 3176 3176 3177 3178
3217 3217 3218 3219 3219 3220 3220 3220 3221 3220 3220 3219 3219 3219 3218 3217 3217 3216 3215 3214 3212 3211 3209 3207 3205 3203 3201 3200 3198 3197 3195 3194 3192 3191 3190 3188 3187 3185 3184 3183 3182 3181 3181 3180 3180 3179 3178 3177 3176 3174 3173 3172 3170 3169 3168 3167 3167 3166 3166 3166 3166 3166 3166 3165 3165 3166 3165 3165 3165 3165 3165 3166 3166 3166 3166 3166 3166 3166 3168 3169 3170 3171 3172 3173 3174
3215 3216 3217 3217 3218 3218 3219 3219 3219 3219 3219 3218 3218 3217 3217 3216 3215 3215 3214 3212 3211 3209 3207 3205 3203 3201 3199 3198 3196 3194 3193 3191 3190 3188 3187 3186 3184 3183 3181 3180 3179 3178 3177 3177 3176 3175 3174 3174 3173 3171 3170 3169 3168 3167 3166 3165 3165 3163 3162 3162 3162 3162 3162 3162 3163 3163 3162 3162 3161 3161 3162 3162 3162 3162 3162 3162 3161 3162 3163 3165 3166 3167 3168 3168 3170
3213 3214 3215 3216 3216 3217 3217 3217 3217 3218 3217 3217 3217 3216 3216 3215 3214 3213 3212 3211 3209 3207 3205 3204 3202 3200 3198 3195 3194 3192 3190 3189 3188 3186 3185 3184 3182 3181 3179 3178 3177 3176 3174 3173 3172 3171 3171 3170 3169 3168 3168 3166 3166 3165 3163 3162 3161 3160 3158 3158 3157 3157 3157 3158 3159 3159 3158 3158 3158 3158 3159 3160 3159 3158 3158 3158 3158 3158 3158 3160 3162 3163 3163 3164 3166
3211 3212 3213 3214 3214 3214 3215 3215 3215 3215 3216 3215 3215 3215 3214 3213 3212 3211 3210 3209 3207 3206 3204 3202 3199 3197 3195 3193 3191 3189 3188 3187 3186 3184 3183 3182 3180 3179 3178 3177 3176 3174 3173 3171 3170 3169 3168 3167 3166 3165 3164 3163 3163 3162 3160 3158 3157 3155 3154 3154 3153 3153 3154 3154 3154 3155 3155 3154 3155 3155 3154 3156 3156 3155 3155 3155 3154 3153 3153 3154 3158 3159 3159 3160 3161
3209 3210 3210 3211 3211 3212 3212 3212 3213 3213 3214 3213 3213 3213 3212 3211 3211 3210 3209 3207 3205 3203 3201 3199 3196 3194 3192 3190 3189 3187 3186 3185 3183 3182 3181 3180 3178 3177 3176 3175 3174 3173 3172 3170 3169 3167 3166 3165 3163 3162 3160 3159 3158 3157 3156 3154 3153 3152 3151 3150 3150 3150 3150 3150 3150 3150 3150 3150 3151 3150 3150 3150 3151 3151 3151 3150 3149 3149 3149 3149 3151 3153 3153 3155 3157
3206 3207 3208 3208 3209 3209 3210 3210 3211 3211 3211 3211 3211 3211 3210 3210 3209 3208 3207 3205 3203 3201 3198 3196 3193 3191 3189 3188 3186 3184 3183 3182 3181 3180 3178 3177 3176 3174 3173 3172 3171 3170 3169 3168 3167 3165 3164 3163 3161 3159 3157 3156 3154 3153 3152 3151 3150 3149 3148 3147 3146 3145 3145 3145 3145 3146 3145 3145 3146 3146 3146 3145 3145 3147 3148 3147 3145 3145 3145 3143 3146 3148 3148 3149 3152
3203 3204 3205 3206 3207 3207 3208 3208 3209 3209 3209 3209 3209 3209 3209 3208 3207 3206 3205 3203 3201 3199 3196 3194 3191 3189 3187 3185 3183 3182 3180 3179 3178 3177 3175 3174 3173 3172 3171 3170 3168 3167 3166 3165 3164 3162 3161 3160 3158 3157 3155 3153 3151 3149 3149 3148 3147 3146 3145 3144 3143 3142 3141 3141 3142 3141 3141 3141 3141 3141 3142 3142 3141 3142 3143 3142 3141 3141 3141 3141 3142 3144 3144 3144 3147
3200 3201 3202 3203 3205 3206 3206 3206 3207 3207 3207 3207 3207 3207 3207 3206 3206 3205 3203 3202 3199 3197 3195 3192 3189 3187 3185 3183 3181 3179 3178 3176 3175 3174 3172 3171 3170 3169 3168 3167 3166 3164 3163 3162 3160 3159 3158 3157 3155 3154 3152 3151 3149 3147 3146 3145 3144 3143 3142 3141 3141 3139 3138 3138 3137 3137 3137 3137 3137 3136 3136 3136 3137 3137 3137 3137 3137 3137 3137 3138 3138 3138 3138 3139 3141
3197 3198 3200 3201 3202 3203 3204 3204 3205 3205 3205 3205 3205 3205 3205 3204 3204 3203 3201 3199 3197 3195 3193 3190 3187 3185 3183 3181 3179 3177 3176 3174 3173 3171 3170 3169 3168 3167 3166 3164 3163 3162 3160 3159 3157 3156 3155 3154 3152 3151 3149 3148 3147 3145 3144 3142 3141 3140 3139 3138 3137 3136 3135 3134 3134 3133 3133 3133 3132 3131 3130 3130 3131 3131 3131 3131 3132 3132 3133 3134 3135 3134 3133 3134 3136
3194 3196 3197 3199 3200 3201 3202 3202 3203 3203 3203 3203 3203 3203 3203 3202 3201 3200 3199 3197 3195 3193 3190 3188 3185 3183 3181 3179 3177 3176 3174 3173 3171 3170 3169 3167 3166 3165 3163 3162 3161 3160 3158 3157 3155 3154 3153 3152 3150 3149 3147 3146 3145 3143 3142 3140 3139 3137 3136 3135 3134 3133 3132 3131 3130 3129 3128 3127 3127 3126 3125 3125 3127 3126 3126 3126 3127 3127 3128 3130 3130 3130 3130 3131 3132
3191 3193 3195 3196 3198 3199 3200 3200 3200 3200 3201 3201 3201 3201 3201 3200 3199 3199 3197 3196 3194 3192 3189 3186 3183 3181 3179 3177 3175 3174 3173 3171 3170 3169 3167 3166 3165 3164 3162 3160 3159 3158 3156 3155 3153 3152 3151 3150 3149 3147 3146 3144 3143 3141 3139 3138 3137 3135 3134 3133 3131 3129 3128 3128 3127 3125 3124 3122 3121 3121 3120 3120 3121 3121 3121 3121 3121 3122 3123 3124 3124 3125 3126 3126 3127
3189 3191 3192 3193 3195 3196 3197 3198 3198 3198 3199 3199 3199 3199 3199 3198 3197 3197 3196 3194 3192 3190 3187 3185 3182 3179 3177 3175 3173 3172 3171 3169 3168 3166 3165 3164 3163 3162 3160 3158 3157 3155 3154 3153 3151 3150 3149 3148 3147 3146 3144 3142 3140 3138 3136 3135 3134 3133 3132 3130 3129 3127 3124 3124 3123 3122 3120 3118 3117 3116 3116 3114 3114 3114 3114 3115 3116 3116 3117 3117 3118 3119 3120 3121 3122
3186 3188 3189 3191 3193 3194 3195 3196 3196 3196 3196 3196 3196 3197 3196 3196 3196 3195 3194 3192 3191 3189 3186 3183 3180 3178 3176 3174 3172 3170 3168 3167 3165 3164 3163 3162 3160 3159 3157 3156 3155 3153 3152 3150 3149 3148 3147 3146 3145 3143 3142 3140 3138 3136 3134 3132 3131 3130 3129 3127 3126 3125 3122 3120 3119 3118 3116 3114 3112 3111 3110 3109 3109 3108 3108 3109 3110 3111 3111 3111 3112 3112 3114 3115 3116
3184 3185 3187 3189 3190 3192 3193 3193 3193 3194 3194 3194 3194 3194 3194 3194 3194 3193 3192 3190 3189 3187 3184 3182 3179 3177 3174 3172 3170 3168 3166 3165 3163 3161 3160 3159 3158 3156 3155 3154 3152 3151 3150 3148 3147 3146 3145 3143 3142 3141 3139 3138 3136 3134 3132 3130 3129 3128 3126 3125 3123 3122 3120 3117 3115 3113 3112 3110 3107 3104 3103 3103 3103 3102 3103 3104 3104 3104 3105 3105 3106 3106 3107 3109 3110
3182 3183 3185 3186 3188 3189 3190 3191 3191 3191 3191 3191 3192 3192 3192 3192 3191 3190 3189 3188 3187 3185 3183 3180 3178 3175 3173 3170 3168 3166 3165 3163 3161 3159 3158 3157 3155 3154 3153 3151 3150 3149 3148 3146 3145 3144 3143 3141 3140 3138 3136 3134 3133 3131 3129 3127 3126 3125 3123 3121 3120 3118 3116 3114 3111 3109 3107 3104 3101 3099 3097 3097 3096 3096 3096 3097 3097 3097 3099 3099 3099 3100 3101 3103 3104
3181 3182 3182 3183 3185 3186 3187 3188 3188 3189 3189 3189 3189 3190 3190 3190 3189 3188 3187 3187 3184 3182 3180 3178 3176 3173 3171 3169 3167 3165 3163 3161 3159 3158 3156 3155 3153 3152 3151 3150 3148 3147 3146 3144 3143 3141 3140 3139 3137 3135 3133 3131 3130 3129 3127 3125 3123 3121 3119 3118 3117 3115 3113 3110 3108 3105 3102 3099 3096 3093 3091 3090 3090 3089 3089 3090 3091 3091 3092 3092 3093 3094 3095 3097 3099
3178 3180 3180 3181 3182 3183 3184 3185 3185 3186 3186 3187 3187 3188 3188 3188 3187 3186 3185 3185 3183 3181 3179 3177 3174 3172 3169 3167 3165 3163 3161 3159 3158 3156 3155 3153 3151 3150 3148 3147 3146 3145 3143 3142 3140 3139 3138 3136 3134 3132 3130 3128 3126 3125 3125 3123 3120 3118 3116 3115 3113 3111 3109 3106 3104 3101 3098 3094 3090 3087 3085 3085 3084 3083 3083 3083 3084 3084 3085 3086 3088 3089 3089 3091 3093
3176 3177 3177 3178 3179 3180 3181 3182 3183 3183 3184 3184 3185 3185 3185 3185 3184 3184 3183 3182 3181 3179 3177 3175 3173 3170 3167 3165 3163 3161 3159 3158 3156 3154 3153 3151 3149 3148 3146 3145 3143 3142 3141 3139 3138 3136 3135 3133 3132 3130 3128 3126 3124 3122 3121 3120 3118 3116 3114 3112 3109 3108 3105 3102 3100 3098 3094 3090 3086 3082 3080 3079 3078 3077 3077 3077 3078 3078 3079 3080 3082 3083 3084 3085 3087
3173 3174 3175 3176 3176 3177 3178 3179 3180 3181 3182 3182 3182 3183 3183 3182 3182 3182 3181 3180 3178 3177 3175 3173 3171 3168 3165 3163 3161 3159 3158 3156 3154 3152 3151 3149 3147 3146 3144 3143 3141 3139 3138 3137 3135 3134 3132 3131 3129 3127 3125 3124 3122 3120 3119 3117 3115 3113 3111 3109 3106 3105 3102 3099 3097 3095 3091 3086 3081 3077 3074 3073 3072 3072 3071 3070 3071 3072 3073 3074 3076 3077 3078 3079 3081
3170 3171 3172 3173 3173 3174 3175 3176 3177 3178 3179 3179 3180 3180 3180 3180 3180 3179 3179 3178 3176 3174 3173 3171 3169 3166 3164 3162 3160 3158 3156 3154 3152 3150 3148 3147 3146 3144 3142 3141 3139 3137 3135 3134 3133 3131 3130 3128 3127 3125 3123 3121 3119 3118 3116 3115 3113 3111 3109 3106 3104 3102 3099 3096 3094 3091 3087 3082 3078 3073 3070 3068 3067 3066 3065 3064 3064 3066 3066 3068 3070 3072 3073 3074 3075
3167 3168 3169 3169 3170 3172 3172 3173 3174 3175 3176 3177 3177 3177 3177 3178 3177 3177 3177 3175 3174 3172 3170 3168 3166 3164 3162 3160 3158 3156 3155 3152 3150 3148 3146 3145 3144 3143 3140 3139 3137 3135 3133 3131 3130 3128 3127 3126 3124 3123 3121 3119 3117 3116 3114 3112 3110 3108 3106 3103 3101 3099 3095 3093 3091 3088 3084 3079 3074 3070 3066 3064 3063 3061 3059 3059 3059 3059 3060 3061 3063 3065 3067 3068 3070
3165 3165 3166 3167 3168 3169 3169 3170 3172 3173 3174 3174 3174 3175 3175 3175 3175 3175 3174 3173 3171 3169 3168 3166 3164 3162 3160 3158 3156 3154 3152 3150 3148 3146 3144 3143 3142 3140 3138 3136 3135 3133 3131 3129 3127 3125 3123 3123 3122 3120 3118 3116 3115 3113 3112 3110 3108 3105 3103 3101 3099 3096 3092 3090 3087 3084 3081 3076 3070 3066 3063 3060 3058 3056 3055 3055 3055 3054 3054 3055 3057 3059 3061 3062 3063
3162 3163 3163 3164 3165 3166 3167 3168 3169 3170 3171 3172 3172 3173 3173 3173 3173 3172 3172 3170 3168 3167 3165 3163 3161 3159 3158 3156 3154 3153 3150 3148 3146 3144 3142 3142 3140 3138 3136 3134 3132 3130 3128 3126 3124 3123 3121 3120 3120 3118 3115 3113 3112 3111 3109 3108 3105 3103 3100 3098 3096 3093 3090 3087 3084 3081 3077 3072 3067 3062 3059 3056 3054 3052 3051 3051 3051 3050 3050 3051 3052 3053 3054 3056 3058
3159 3160 3161 3161 3162 3163 3164 3165 3166 3168 3169 3169 3170 3170 3171 3171 3170 3170 3169 3167 3165 3164 3162 3160 3159 3157 3155 3154 3152 3150 3148 3146 3144 3142 3140 3140 3138 3135 3133 3131 3129 3128 3126 3124 3122 3120 3119 3118 3117 3116 3113 3111 3109 3108 3107 3105 3102 3100 3097 3095 3093 3090 3087 3084 3081 3077 3073 3069 3064 3060 3056 3053 3050 3048 3048 3047 3047 3046 3046 3046 3046 3047 3047 3049 3051
3155 3156 3157 3158 3159 3160 3161 3162 3163 3165 3166 3167 3167 3168 3168 3168 3168 3167 3165 3164 3162 3160 3159 3158 3156 3154 3153 3151 3150 3148 3146 3144 3142 3140 3138 3137 3136 3133 3131 3129 3127 3126 3124 3123 3121 3118 3117 3116 3115 3113 3112 3109 3107 3105 3104 3102 3100 3097 3094 3092 3091 3088 3084 3081 3078 3075 3071 3066 3062 3057 3053 3050 3047 3045 3044 3043 3042 3042 3041 3041 3041 3041 3042 3042 3043
3152 3152 3154 3155 3156 3157 3158 3159 3161 3162 3163 3164 3165 3165 3166 3166 3165 3164 3162 3161 3159 3158 3156 3155 3153 3152 3150 3149 3147 3145 3143 3142 3140 3138 3136 3135 3133 3131 3129 3127 3125 3123 3122 3120 3119 3117 3115 3114 3112 3111 3109 3107 3105 3103 3102 3100 3097 3094 3092 3090 3088 3085 3082 3079 3076 3072 3068 3064 3060 3055 3051 3048 3045 3042 3040 3038 3037 3037 3036 3036 3036 3036 3037 3037 3038
3148 3148 3150 3151 3153 3154 3155 3156 3158 3160 3161 3161 3162 3163 3163 3162 3161 3160 3159 3157 3156 3155 3153 3152 3151 3149 3147 3146 3144 3143 3141 3139 3137 3135 3134 3132 3130 3128 3127 3125 3123 3121 3120 3118 3117 3115 3113 3111 3109 3108 3106 3105 3102 3101 3099 3097 3095 3092 3090 3087 3085 3082 3079 3076 3073 3070 3066 3063 3058 3054 3049 3045 3042 3039 3037 3034 3032 3032 3031 3031 3031 3032 3032 3033 3034
3144 3145 3146 3147 3149 3151 3152 3154 3155 3156 3157 3159 3160 3160 3160 3159 3158 3157 3156 3154 3153 3152 3150 3149 3148 3146 3145 3143 3141 3140 3139 3137 3135 3133 3131 3129 3127 3125 3124 3123 3121 3120 3118 3116 3115 3113 3111 3109 3107 3105 3104 3102 3100 3098 3097 3095 3093 3090 3088 3085 3082 3080 3077 3074 3071 3068 3065 3061 3057 3053 3048 3044 3039 3036 3033 3031 3029 3027 3026 3026 3026 3026 3027 3028 3029
3141 3142 3142 3144 3146 3148 3150 3151 3152 3153 3155 3156 3157 3157 3157 3156 3155 3154 3153 3151 3150 3149 3148 3146 3145 3144 3142 3140 3139 3137 3136 3134 3132 3130 3129 3127 3125 3123 3121 3120 3119 3118 3116 3114 3112 3110 3108 3107 3105 3103 3101 3099 3097 3095 3094 3093 3090 3088 3085 3083 3080 3077 3075 3072 3070 3067 3064 3060 3056 3051 3047 3043 3038 3033 3030 3027 3025 3023 3021 3020 3019 3020 3020 3021 3022
3139 3139 3141 3142 3144 3146 3147 3149 3150 3151 3153 3154 3154 3154 3154 3153 3152 3151 3150 3148 3147 3146 3145 3144 3143 3141 3139 3138 3136 3135 3133 3131 3129 3128 3126 3124 3122 3120 3119 3117 3116 3115 3113 3111 3109 3108 3106 3104 3103 3101 3099 3097 3094 3093 3091 3090 3088 3085 3083 3080 3078 3075 3072 3070 3067 3065 3062 3059 3055 3050 3046 3041 3036 3031 3027 3024 3022 3020 3018 3016 3013 3013 3013 3013 3015
3137 3138 3139 3140 3142 3144 3145 3146 3148 3149 3150 3151 3151 3151 3150 3150 3149 3148 3147 3145 3145 3144 3143 3141 3140 3138 3137 3135 3133 3132 3130 3128 3127 3125 3124 3122 3120 3118 3116 3115 3113 3112 3110 3107 3106 3105 3103 3101 3099 3098 3096 3094 3092 3090 3088 3087 3085 3082 3080 3078 3076 3073 3071 3068 3066 3063 3061 3058 3054 3049 3045 3040 3035 3030 3025 3021 3019 3017 3015 3012 3009 3006 3005 3006 3009
3136 3137 3138 3139 3141 3142 3143 3144 3146 3147 3148 3148 3147 3147 3147 3146 3146 3145 3144 3143 3142 3141 3140 3138 3137 3135 3134 3132 3131 3129 3127 3125 3124 3123 3121 3119 3117 3116 3114 3112 3111 3109 3107 3104 3103 3102 3100 3098 3096 3095 3093 3092 3090 3087 3085 3084 3082 3080 3078 3076 3074 3071 3069 3067 3065 3062 3059 3057 3053 3049 3045 3040 3035 3029 3024 3019 3016 3014 3012 3009 3006 3001 2998 2999 3002
3136 3137 3137 3138 3139 3140 3141 3143 3144 3145 3144 3144 3144 3143 3143 3143 3142 3142 3140 3139 3138 3137 3136 3135 3134 3132 3131 3130 3128 3126 3124 3122 3120 3119 3118 3116 3114 3113 3111 3109 3108 3106 3104 3102 3101 3099 3098 3096 3094 3092 3090 3089 3087 3084 3082 3081 3080 3077 3075 3074 3071 3069 3067 3065 3063 3060 3057 3055 3052 3049 3045 3040 3035 3029 3024 3018 3014 3011 3009 3007 3003 2997 2993 2993 2995
3134 3135 3136 3136 3137 3139 3140 3141 3142 3141 3141 3141 3140 3140 3139 3139 3138 3137 3136 3135 3134 3133 3132 3131 3130 3129 3128 3126 3124 3123 3121 3119 3117 3115 3114 3113 3111 3110 3108 3106 3104 3102 3101 3100 3098 3096 3094 3093 3091 3090 3088 3086 3085 3082 3080 3079 3077 3075 3073 3071 3069 3067 3065 3063 3060 3058 3055 3052 3050 3047 3044 3040 3035 3029 3024 3019 3014 3009 3007 3006 3001 2995 2990 2989 2989
3132 3133 3134 3135 3136 3137 3138 3138 3138 3138 3138 3138 3137 3136 3136 3135 3134 3133 3132 3132 3131 3129 3128 3127 3126 3126 3124 3123 3121 3120 3118 3116 3114 3112 3110 3109 3108 3107 3105 3103 3100 3099 3097 3096 3094 3092 3091 3090 3088 3087 3085 3084 3082 3080 3078 3076 3074 3073 3071 3069 3067 3065 3063 3061 3059 3056 3053 3051 3048 3046 3043 3039 3035 3030 3024 3020 3014 3008 3006 3004 2999 2992 2988 2986 2986
3130 3131 3132 3133 3134 3135 3135 3135 3135 3135 3135 3135 3134 3133 3132 3131 3131 3130 3129 3128 3127 3125 3123 3122 3122 3122 3120 3119 3118 3117 3115 3113 3111 3109 3107 3106 3105 3104 3102 3100 3098 3095 3093 3092 3091 3089 3088 3087 3086 3084 3083 3081 3079 3077 3074 3072 3071 3070 3068 3067 3065 3063 3061 3059 3057 3055 3052 3050 3047 3045 3042 3039 3035 3030 3025 3020 3015 3009 3005 3003 2998 2990 2986 2984 2984
3128 3129 3130 3131 3131 3132 3132 3132 3132 3132 3132 3132 3131 3131 3129 3128 3127 3127 3126 3124 3123 3121 3119 3119 3119 3118 3116 3115 3114 3113 3111 3110 3108 3106 3104 3103 3101 3100 3099 3097 3095 3092 3090 3089 3087 3086 3085 3084 3082 3081 3080 3078 3075 3073 3072 3070 3069 3068 3066 3065 3063 3061 3059 3057 3055 3053 3051 3048 3046 3044 3041 3038 3035 3031 3026 3021 3016 3011 3006 3002 2997 2991 2986 2984 2983
3126 3127 3127 3128 3129 3129 3129 3129 3129 3129 3129 3129 3128 3127 3126 3125 3124 3124 3123 3121 3119 3118 3116 3116 3115 3114 3112 3111 3110 3108 3107 3106 3104 3102 3101 3099 3098 3096 3095 3093 3091 3089 3087 3085 3084 3082 3082 3080 3079 3078 3077 3075 3073 3071 3070 3068 3067 3066 3064 3063 3061 3060 3058 3056 3054 3052 3049 3047 3045 3043 3040 3037 3034 3031 3027 3022 3018 3013 3008 3004 2998 2993 2988 2984 2983
3123 3124 3125 3125 3126 3126 3126 3126 3126 3126 3126 3125 3124 3123 3122 3122 3120 3119 3118 3117 3115 3114 3114 3113 3112 3110 3108 3107 3106 3104 3103 3102 3101 3099 3097 3095 3093 3092 3090 3089 3087 3086 3084 3082 3081 3079 3078 3077 3076 3075 3074 3072 3070 3069 3068 3067 3065 3064 3062 3061 3060 3058 3056 3054 3052 3050 3048 3046 3044 3042 3039 3037 3034 3031 3028 3024 3019 3014 3010 3006 3000 2995 2990 2986 2984
3120 3121 3122 3122 3123 3123 3123 3123 3122 3122 3122 3121 3120 3119 3119 3117 3115 3114 3113 3112 3111 3110 3110 3109 3108 3106 3104 3103 3102 3101 3099 3098 3096 3095 3093 3090 3088 3087 3085 3084 3083 3082 3080 3079 3078 3076 3075 3075 3073 3073 3072 3070 3068 3067 3066 3065 3063 3062 3060 3059 3058 3057 3055 3053 3051 3050 3047 3045 3042 3040 3038 3036 3033 3031 3028 3025 3021 3016 3013 3009 3003 2998 2993 2990 2987
3118 3118 3119 3119 3120 3119 3119 3119 3118 3118 3118 3117 3116 3115 3114 3112 3111 3109 3108 3107 3107 3107 3106 3104 3103 3101 3100 3099 3098 3096 3095 3094 3092 3091 3090 3087 3083 3081 3080 3079 3078 3078 3077 3076 3075 3073 3073 3072 3071 3070 3069 3068 3066 3065 3064 3063 3061 3060 3059 3057 3056 3055 3053 3052 3050 3048 3046 3044 3041 3039 3038 3036 3033 3031 3029 3026 3023 3019 3015 3011 3006 3002 2998 2994 2992
3115 3115 3115 3116 3116 3116 3115 3115 3114 3114 3113 3112 3111 3110 3109 3107 3106 3105 3103 3103 3102 3102 3101 3100 3098 3097 3096 3095 3094 3092 3091 3090 3088 3086 3084 3083 3080 3078 3075 3073 3073 3073 3073 3072 3071 3071 3070 3069 3068 3067 3066 3065 3064 3063 3062 3061 3059 3058 3057 3055 3054 3053 3051 3050 3048 3047 3045 3043 3041 3039 3038 3035 3033 3031 3029 3027 3024 3021 3017 3014 3010 3006 3002 2999 2997
3113 3112 3112 3113 3113 3112 3112 3111 3110 3109 3108 3107 3106 3105 3104 3102 3101 3100 3099 3098 3098 3097 3097 3095 3094 3093 3092 3091 3090 3088 3087 3086 3084 3082 3079 3077 3075 3073 3070 3067 3067 3069 3069 3069 3068 3068 3068 3067 3066 3065 3064 3063 3062 3061 3060 3059 3057 3056 3055 3053 3052 3050 3049 3048 3046 3045 3044 3042 3041 3039 3037 3035 3033 3031 3029 3027 3025 3022 3019 3016 3013 3009 3006 3003 3000
3109 3109 3109 3109 3109 3108 3107 3106 3105 3104 3103 3102 3100 3100 3099 3098 3097 3096 3095 3094 3094 3093 3093 3092 3090 3089 3088 3087 3086 3084 3082 3081 3080 3078 3076 3073 3071 3069 3066 3064 3064 3065 3066 3065 3065 3065 3065 3064 3063 3062 3062 3061 3059 3058 3057 3056 3055 3054 3053 3052 3050 3048 3047 3046 3045 3044 3043 3041 3039 3038 3035 3033 3032 3030 3029 3027 3025 3023 3021 3018 3016 3013 3010 3007 3004